Погода в Чистополье

Казахстан     52°33′51″N   67°15′22″E
темп.,
°C
ветер,
м/с
пор.,
м/с
влажн.,
%
обл.,
%
осадки,
мм/ч
давл.,
гПа
погр.,
м
25 февраля, чт
чт2500:00−26вюв2298100 0.1 100819
03:00−29ссз2310098 0.0 101019
06:00−31зсз4410090 0.0 101347
09:00−30зсз3510099 0.0 101888
12:00−21сз6993100 0.1 1021710
15:00−22зсз6994100 0.1 1025599
18:00−25зсз5996100 0.1 1028430
21:00−29з4710099 0.0 1032104
26 февраля, пт
пт2600:00−31зюз4510094 0.0 103467
03:00−32зюз449970 0.0 103457
06:00−32юз449952 0.0 103657
09:00−32юз349834 0.0 103669
12:00−27юз469517 0.0 1037228
15:00−25ююз479412 0.0 1036273
18:00−26ю369525 0.0 1035126
21:00−29ю45960 0.0 103668
27 февраля, сб
сб2700:00−29ю45970 0.0 103570
03:00−29ююв469722 0.0 103382
06:00−29ююв479718 0.0 103298
09:00−26ююв599649 0.0 1030149
12:00−18ююв6109351 0.0 1028285
15:00−14ююв8139094 0.0 1025545
18:00−11ю9159097 0.1 1022764
21:00−10ю101792100 0.7 1016826
28 февраля, вс
вс2800:00−9ю101793100 2.4 1013903
03:00−7ю101793100 2.1 1009873
06:00−5ююз91692100 2.9 1006609
09:00−3ююз8149298 0.1 1005389
12:000юз7119099 0.3 1004798
15:000юз61192100 0.3 1005818
18:00−1юз61290100 1.0 1005564
21:00−2юз51196100 0.4 1005548
1 марта, пн
пн100:00−4юз4109688 0.4 1006246
03:00−3юз61196100 0.6 1006557
06:00−4зюз61295100 1.3 1007750
09:00−7зюз61195100 0.7 1009462
12:00−10зюз6893100 1.3 1011420
15:00−10зюз5892100 0.3 1014486
18:00−13зсз4695100 0.4 1017277
21:00−19зсз34100100 0.1 102042